Location: G�ndlingen
(48.0142°N, 7.6396°E)
Time: 02:37:01
(UTC+00:00)

Cosmos 2344 - Pass Details

Date: 05 July 2020
Orbit: 1249 x 2993 km, 63.3° (Epoch: 04 August)

Event Time Altitude Azimuth Distance (km) Brightness Sun altitude
Exits shadow 22:16:04 18° 192° (SSW) 2,647 4.8 -17.2°
Maximum altitude 22:21:34 56° 121° (ESE) 1,467 3.6 -17.5°
Drops below altitude 10° 22:29:18 10° 45° (NE) 3,466 6.2 -17.8°
Sets 22:32:26 0° 42° (NE) 4,594 7.0 -18.0°
